• In Belarus
  • List of Countries
  • For 7 days
  • Water Temperature
  • Weather Map
  • Weather Widgets
  • user-avatar
    Login

    Hourly Weather Chiquimula

    Today, 4 June, Thursday

    Time Temperature Precipitation Wind Pressure Humidity
    00:00 +23°C° 0 mm 2 mps 704 mmHg 94%
    01:00 +23°C° 0 mm 2 mps 704 mmHg 94%
    02:00 +23°C° 0 mm 2 mps 703 mmHg 93%
    03:00 +23°C° 0 mm 2 mps 703 mmHg 93%
    04:00 +23°C° 0.2 mm 2 mps 703 mmHg 93%
    05:00 +23°C° 0.2 mm 2 mps 703 mmHg 94%
    06:00 +23°C° 0.2 mm 2 mps 703 mmHg 94%
    07:00 +24°C° 0.8 mm 2 mps 703 mmHg 94%
    08:00 +24°C° 0.8 mm 2 mps 703 mmHg 94%
    09:00 +24°C° 0.8 mm 2 mps 704 mmHg 94%
    10:00 +24°C° 0.8 mm 2 mps 704 mmHg 94%
    11:00 +24°C° 0.8 mm 2 mps 704 mmHg 93%
    12:00 +25°C° 0.8 mm 2 mps 703 mmHg 93%
    13:00 +25°C° 0.3 mm 2 mps 703 mmHg 91%
    14:00 +25°C° 0.3 mm 2 mps 703 mmHg 90%
    15:00 +26°C° 0.3 mm 2 mps 702 mmHg 89%
    16:00 +25°C° 0.2 mm 2 mps 702 mmHg 91%
    17:00 +25°C° 0.2 mm 2 mps 703 mmHg 93%
    18:00 +24°C° 0.2 mm 1 mps 703 mmHg 95%
    19:00 +24°C° 0.1 mm 1 mps 703 mmHg 95%
    20:00 +24°C° 0.1 mm 1 mps 704 mmHg 95%
    21:00 +24°C° 0.1 mm 1 mps 704 mmHg 96%
    22:00 +23°C° 0 mm 1 mps 704 mmHg 96%
    23:00 +23°C° 0 mm 1 mps 704 mmHg 96%

    Tomorrow, 5 June, Friday

    Time Temperature Precipitation Wind Pressure Humidity
    00:00 +23°C° 0 mm 1 mps 704 mmHg 97%
    01:00 +23°C° 0.2 mm 1 mps 704 mmHg 97%
    02:00 +23°C° 0.2 mm 1 mps 704 mmHg 97%
    03:00 +23°C° 0.2 mm 1 mps 703 mmHg 97%
    04:00 +23°C° 0.2 mm 1 mps 704 mmHg 96%
    05:00 +23°C° 0.2 mm 1 mps 704 mmHg 96%
    06:00 +21°C° 0.2 mm 2 mps 704 mmHg 96%
    07:00 +23°C° 0.1 mm 2 mps 704 mmHg 93%
    08:00 +24°C° 0.1 mm 2 mps 705 mmHg 90%
    09:00 +25°C° 0.1 mm 2 mps 706 mmHg 87%
    10:00 +25°C° 0.1 mm 2 mps 705 mmHg 88%
    11:00 +24°C° 0.1 mm 2 mps 705 mmHg 88%
    12:00 +24°C° 0.1 mm 2 mps 705 mmHg 89%
    13:00 +25°C° 0.2 mm 3 mps 704 mmHg 86%
    14:00 +25°C° 0.2 mm 3 mps 704 mmHg 83%
    15:00 +26°C° 0.2 mm 4 mps 704 mmHg 79%
    16:00 +25°C° 0.7 mm 3 mps 704 mmHg 84%
    17:00 +24°C° 0.7 mm 3 mps 704 mmHg 89%
    18:00 +23°C° 0.7 mm 2 mps 704 mmHg 94%
    19:00 +23°C° 0.3 mm 2 mps 705 mmHg 94%
    20:00 +23°C° 0.3 mm 2 mps 706 mmHg 95%
    21:00 +23°C° 0.3 mm 2 mps 706 mmHg 96%
    22:00 +23°C° 0.1 mm 1 mps 706 mmHg 96%
    23:00 +23°C° 0.1 mm 1 mps 706 mmHg 96%

    Day after tomorrow, 6 June, Saturday

    Time Temperature Precipitation Wind Pressure Humidity
    00:00 +22°C° 0.1 mm 1 mps 706 mmHg 96%
    01:00 +22°C° 0.2 mm 1 mps 706 mmHg 96%
    02:00 +22°C° 0.2 mm 1 mps 706 mmHg 97%
    03:00 +22°C° 0.2 mm 1 mps 705 mmHg 97%
    04:00 +22°C° 0 mm 1 mps 705 mmHg 97%
    05:00 +22°C° 0 mm 1 mps 706 mmHg 96%
    06:00 +22°C° 0 mm 1 mps 706 mmHg 96%
    07:00 +24°C° 0 mm 2 mps 706 mmHg 93%
    08:00 +25°C° 0 mm 2 mps 707 mmHg 90%
    09:00 +26°C° 0 mm 2 mps 708 mmHg 87%
    10:00 +27°C° 0.1 mm 2 mps 707 mmHg 82%
    11:00 +28°C° 0.1 mm 2 mps 707 mmHg 76%
    12:00 +29°C° 0.1 mm 2 mps 707 mmHg 71%
    13:00 +29°C° 0.4 mm 2 mps 707 mmHg 74%
    14:00 +29°C° 0.4 mm 2 mps 706 mmHg 76%
    15:00 +28°C° 0.4 mm 2 mps 706 mmHg 79%
    16:00 +27°C° 0.2 mm 2 mps 706 mmHg 83%
    17:00 +27°C° 0.2 mm 1 mps 706 mmHg 87%
    18:00 +26°C° 0.2 mm 1 mps 706 mmHg 91%
    19:00 +25°C° 0 mm 1 mps 706 mmHg 92%
    20:00 +25°C° 0 mm 1 mps 707 mmHg 93%
    21:00 +24°C° 0 mm 1 mps 707 mmHg 94%
    22:00 +24°C° 0 mm 1 mps 707 mmHg 95%
    23:00 +23°C° 0 mm 1 mps 707 mmHg 95%

    7 June, Sunday

    Time Temperature Precipitation Wind Pressure Humidity
    00:00 +23°C° 0 mm 1 mps 707 mmHg 96%
    01:00 +23°C° 0 mm 1 mps 707 mmHg 96%
    02:00 +23°C° 0 mm 1 mps 707 mmHg 96%
    03:00 +22°C° 0 mm 1 mps 706 mmHg 96%
    04:00 +22°C° 0 mm 1 mps 706 mmHg 95%
    05:00 +22°C° 0 mm 1 mps 706 mmHg 95%
    06:00 +22°C° 0 mm 1 mps 707 mmHg 94%
    07:00 +24°C° 0 mm 1 mps 707 mmHg 89%
    08:00 +26°C° 0 mm 1 mps 707 mmHg 83%
    09:00 +27°C° 0 mm 1 mps 708 mmHg 77%
    10:00 +29°C° 0 mm 1 mps 708 mmHg 72%
    11:00 +30°C° 0 mm 2 mps 707 mmHg 67%
    12:00 +32°C° 0 mm 2 mps 707 mmHg 62%
    13:00 +32°C° 0 mm 2 mps 706 mmHg 62%
    14:00 +32°C° 0 mm 2 mps 706 mmHg 62%
    15:00 +32°C° 0 mm 2 mps 705 mmHg 62%
    16:00 +31°C° 0.1 mm 2 mps 705 mmHg 69%
    17:00 +29°C° 0.1 mm 2 mps 705 mmHg 76%
    18:00 +28°C° 0.1 mm 1 mps 705 mmHg 82%
    19:00 +27°C° 0.2 mm 1 mps 706 mmHg 86%
    20:00 +26°C° 0.2 mm 1 mps 706 mmHg 89%
    21:00 +25°C° 0.2 mm 1 mps 707 mmHg 93%
    22:00 +25°C° 0.2 mm 1 mps 707 mmHg 94%
    23:00 +24°C° 0.2 mm 1 mps 707 mmHg 95%

    8 June, Monday

    Time Temperature Precipitation Wind Pressure Humidity
    00:00 +24°C° 0.2 mm 1 mps 707 mmHg 96%
    01:00 +24°C° 0 mm 1 mps 707 mmHg 96%
    02:00 +24°C° 0 mm 1 mps 706 mmHg 97%
    03:00 +24°C° 0 mm 1 mps 706 mmHg 97%
    04:00 +24°C° 0 mm 1 mps 706 mmHg 96%
    05:00 +24°C° 0 mm 1 mps 707 mmHg 96%
    06:00 +24°C° 0 mm 1 mps 707 mmHg 95%
    07:00 +25°C° 0 mm 1 mps 707 mmHg 89%
    08:00 +26°C° 0 mm 1 mps 707 mmHg 84%
    09:00 +28°C° 0 mm 1 mps 708 mmHg 78%
    10:00 +29°C° 0 mm 2 mps 708 mmHg 73%
    11:00 +31°C° 0 mm 2 mps 707 mmHg 67%
    12:00 +32°C° 0 mm 2 mps 707 mmHg 62%
    13:00 +32°C° 0 mm 2 mps 706 mmHg 62%
    14:00 +32°C° 0 mm 2 mps 706 mmHg 62%
    15:00 +32°C° 0 mm 2 mps 705 mmHg 62%
    16:00 +31°C° 0.1 mm 2 mps 705 mmHg 68%
    17:00 +30°C° 0.1 mm 1 mps 705 mmHg 74%
    18:00 +29°C° 0.1 mm 1 mps 705 mmHg 80%
    19:00 +28°C° 0.4 mm 1 mps 706 mmHg 84%
    20:00 +27°C° 0.4 mm 1 mps 706 mmHg 87%
    21:00 +26°C° 0.4 mm 1 mps 707 mmHg 90%
    22:00 +26°C° 0.4 mm 1 mps 707 mmHg 91%
    23:00 +25°C° 0.4 mm 1 mps 707 mmHg 92%

    9 June, Tuesday

    Time Temperature Precipitation Wind Pressure Humidity
    00:00 +25°C° 0.4 mm 1 mps 707 mmHg 93%
    01:00 +25°C° 0.2 mm 1 mps 707 mmHg 94%
    02:00 +25°C° 0.2 mm 1 mps 706 mmHg 94%
    03:00 +24°C° 0.2 mm 1 mps 706 mmHg 95%
    04:00 +24°C° 0 mm 1 mps 706 mmHg 95%
    05:00 +24°C° 0 mm 1 mps 706 mmHg 95%
    06:00 +24°C° 0 mm 1 mps 706 mmHg 95%
    07:00 +26°C° 0 mm 1 mps 707 mmHg 89%
    08:00 +27°C° 0 mm 2 mps 707 mmHg 84%
    09:00 +29°C° 0 mm 2 mps 708 mmHg 78%
    10:00 +30°C° 0 mm 2 mps 707 mmHg 73%
    11:00 +31°C° 0 mm 2 mps 707 mmHg 67%
    12:00 +34°C° 0 mm 2 mps 707 mmHg 61%
    13:00 +34°C° 0 mm 2 mps 706 mmHg 61%
    14:00 +34°C° 0 mm 2 mps 706 mmHg 62%
    15:00 +34°C° 0 mm 2 mps 705 mmHg 62%
    16:00 +31°C° 0.5 mm 2 mps 705 mmHg 70%
    17:00 +30°C° 0.5 mm 2 mps 705 mmHg 77%
    18:00 +28°C° 0.5 mm 1 mps 705 mmHg 85%
    19:00 +27°C° 0.7 mm 1 mps 705 mmHg 88%
    20:00 +26°C° 0.7 mm 1 mps 706 mmHg 91%
    21:00 +25°C° 0.7 mm 1 mps 706 mmHg 94%
    22:00 +25°C° 0.7 mm 1 mps 706 mmHg 95%
    23:00 +25°C° 0.7 mm 1 mps 706 mmHg 95%
    Show more